Regional Weather Roundup
Issued by NWS Boston, MA

Current Version | Previous Version | Text Only | Print | Product List | Glossary Off
Versions: 1 2 3 4 5 6 7 8 9 10 11 12 13 14 15 16 17 18 19 20 21 22 23 24 25 26 27 28 29 30 31 32 33 34 35 36 37 38 39 40 41 42 43 44 45 46 47 48 49 50

921
ASUS41 KBOX 261510
RWRBOX

REGIONAL WEATHER ROUNDUP
NATIONAL WEATHER SERVICE TAUNTON MA
1100 AM EDT TUE JUL 26 2016

NOTE:  "FAIR" INDICATES FEW OR NO CLOUDS BELOW 12,000 FEET WITH NO
SIGNIFICANT WEATHER AND/OR OBSTRUCTIONS TO VISIBILITY.  THE FOLLOWING
OBSERVATION LOCATIONS DO NOT REPORT PRESENT WEATHER...PROVINCETOWN...
SMITHFIELD...BLOCK ISLAND...KEENE...AND OXFORD.

MAZALL-261600-
EASTERN MASSACHUSETTS

CITY           SKY/WX    TMP DP  RH WIND       PRES   REMARKS
BOSTON         MOSUNNY   88  59  37 NW13G22   29.78F
BEVERLY        SUNNY     89  61  38 NW12G20   29.78S
LAWRENCE       SUNNY     87  60  40 NW14G22   29.81S
BEDFORD        MOSUNNY   87  58  37 NW13G21   29.79S
BLUE HILL        N/A     87  60  40 NW17G25   29.81F
NORWOOD        MOSUNNY   89  63  41 W13G22    29.80S HX  90
MARSHFIELD     SUNNY     88  63  42 W9G16     29.78F
PLYMOUTH       MOSUNNY   87  63  44 NW13      29.81F
TAUNTON        MOSUNNY   88  63  43 W8        29.80F
NEW BEDFORD    SUNNY     88  65  46 W7G20     29.81F HX  90
$$

MAZALL-261600-
CAPE COD AND THE ISLANDS

CITY           SKY/WX    TMP DP  RH WIND       PRES   REMARKS
FALMOUTH       SUNNY     82  64  54 NW17      29.80S
HYANNIS        SUNNY     87  61  41 NW13G20   29.79F
CHATHAM        SUNNY     86  63  45 NW8G17    29.81F
PROVINCETOWN   SUNNY     81  66  60 W12       29.80S
NANTUCKET      SUNNY     78  70  76 W13       29.82F
MARTHAS VNYRD  SUNNY     83  69  62 W9        29.83S
$$

MAZALL-261600-
CENTRAL AND WESTERN MASSACHUSETTS

CITY           SKY/WX    TMP DP  RH WIND       PRES   REMARKS
WORCESTER      MOSUNNY   81  60  48 W15G24    29.87S
FITCHBURG      MOSUNNY   87  59  38 NW14G21   29.83S
ORANGE         MOSUNNY   83  59  44 W13G21    29.85S
SPRINGFIELD    MOSUNNY   84  61  45 NW15G25   29.84S
WESTFIELD      MOSUNNY   86  59  39 NW16G26   29.86S
NORTH ADAMS    CLOUDY    77  62  59 VRB5      29.89R
PITTSFIELD     MOSUNNY   76  61  59 W20       29.92S
$$

RIZALL-261600-
RHODE ISLAND

CITY           SKY/WX    TMP DP  RH WIND       PRES   REMARKS
PROVIDENCE     MOSUNNY   86  65  49 W14       29.83F
NEWPORT        SUNNY     85  65  51 NW12      29.83F
BLOCK ISLAND   SUNNY     78  70  76 W10       29.87S
SMITHFIELD     MOSUNNY   84  63  48 W9G22     29.84F
WESTERLY       SUNNY     84  66  54 SW9       29.86S
$$

CTZALL-261600-
CONNECTICUT

CITY           SKY/WX    TMP DP  RH WIND       PRES   REMARKS
BRADLEY INTL   PTSUNNY   86  61  42 W14       29.85F
HARTFORD       CLOUDY    87  66  49 VRB7      29.86S
BRIDGEPORT     SUNNY     82  71  69 SW13      29.88F
DANBURY        MOSUNNY   82  67  60 W9        29.91F
GROTON         SUNNY     83  69  62 W9G20     29.85F
NEW HAVEN      MOSUNNY   81  71  71 SW9       29.88F
CHESTER        FAIR      82  64  54 NW7G15    29.89S
MERIDEN        SUNNY     85  65  51 NW10G18   29.88F
WILLIMANTIC    NOT AVBL
OXFORD         MOSUNNY   79  66  65 NW6       29.94S
$$

MEZ002-015-021-024-NHZ003-005-008-011-012-014-VTZ005-008-261600-
NORTHERN NEW ENGLAND

CITY           SKY/WX    TMP DP  RH WIND       PRES   REMARKS
PORTLAND ME    MOSUNNY   85  65  51 W10       29.75S
BANGOR ME      MOSUNNY   85  67  54 NW10      29.73S
CONCORD NH     MOSUNNY   86  60  41 VRB7      29.81S
MANCHESTER NH  MOSUNNY   84  59  42 W12G22    29.79F
NASHUA NH      MOSUNNY   85  61  44 NW15G22   29.81S
PORTSMOUTH NH  MOSUNNY   84  65  51 W14G22    29.76F
JAFFREY NH     SUNNY     82  56  40 NW9G16    29.87R
KEENE NH       MOSUNNY   83  60  45 N10       29.85S
BURLINGTON VT  PTSUNNY   80  61  52 W7        29.83S
MT. WASHINGTON DRZL/FOG  52  52 100 NW31        N/A  VSB 0
$$

NYZ052-076-261600-
EASTERN NEW YORK

CITY           SKY/WX    TMP DP  RH WIND       PRES   REMARKS
ALBANY         MOSUNNY   79  63  57 NW13      29.90R
NEW YORK CITY  MOSUNNY   86  65  49 NW13      29.90S
$$

ANZALL-261600-
MARINE OBSERVATIONS

STATION/POSITION TIME  TEMP    WIND        PRES    VSBY  WAVE
                       AIR SEA DIR/SP/G                  HT/PER
                 (UTC) (F)     (DEG/KT/KT) (MB)    (MI)  (FT/S)
BOSTON BUOY      1450   75 71  270/  8/ 10 1008.7F         1/ 7
BUZZARDS BAY     1400   70     250/ 13/ 14 1010.6F
NANTUCKET SOUND  1450   76 73  250/  8/ 10 1009.3F         1/ 3
MASS BAY-STELLWA 1404   74 68  290/  8/ 10 1008.5S  1 7/8  2/ 3
ISLE OF SHOALS   1400   76     290/ 17/ 18 1007.8R
S OF BLOCK IS    1425      71                N/A           3/ 5
$$

......................KEY.........................
  SKY/WX - SKY CONDITION/PRESENT WEATHER
  TMP    - TEMPERATURE IN FAHRENHEIT
  DWPT   - DEWPOINT IN FAHRENHEIT
  RH     - RELATIVE HUMIDITY IN PERCENT
  WIND   - DIRECTION AND SPEED IN MPH
  PRES   - MEAN SEA LEVEL PRESSURE IN INCHES OF HG
  WCI    - WIND CHILL INDEX
  VSB    - VISIBILITY IN MILES
  HX     - HEAT INDEX
  TC     - TEMPERATURE IN CELSIUS
  VRB    - VARIABLE WIND DIRECTION
  N/A    - NOT AVAILABLE




USA.gov is the U.S. government's official web portal to all federal, state and local government web resources and services.